Location: Bethera
(33.2010°N, 79.7880°W)
Time: 22:58:49
(UTC-04:00)

Amateur Radio Satellites - All Passes

Search period start: 23 July 2016 22:28
Search period end: 24 July 2016 22:28
Location: Bethera, 33.2010°N, 79.7880°W

Satellite Date Start Highest point End Downlink Frequencies (MHz)
Time Altitude Azimuth
ISS 23 Jul 22:30:27 22:33:38 56° 133° (SE) 22:36:50 145.825
UNISAT 6 23 Jul 22:31:21 22:33:45 14° 93° (E) 22:36:06 437.425
PRISM 23 Jul 22:35:47 22:39:22 30° 288° (WNW) 22:42:59 437.425
Cosmos 2504 23 Jul 22:36:15 22:43:45 38° 76° (ENE) 22:50:42 435.465 / 435.565
UWE-3 23 Jul 22:41:24 22:44:22 17° 267° (W) 22:47:22 435.000/436.395/437.385
M-CUBED/EXP-1 PRIME 23 Jul 22:46:11 22:49:25 34° 258° (WSW) 22:52:54 437.505
ZACube-1 23 Jul 22:50:34 22:53:54 21° 265° (W) 22:57:19 437.345
FUNcube-1 23 Jul 22:51:49 22:55:13 21° 265° (W) 22:58:40 145.935
AIST 2 23 Jul 22:53:53 22:57:46 41° 302° (WNW) 23:01:42 435.215
PHONESAT 2.4 23 Jul 22:57:30 23:00:12 27° 13° (NNE) 23:02:53 2401.200-2431.200
HUMSAT D 23 Jul 23:02:41 23:06:58 71° 259° (W) 23:11:17 437.325/437.525
ANTELSAT 23 Jul 23:08:22 23:12:41 38° 98° (E) 23:16:54 437.575/2403.000
VELOX 1 23 Jul 23:12:25 23:13:55 12° 66° (ENE) 23:15:24 145.980
AUBIESAT-1 23 Jul 23:16:39 23:19:10 18° 261° (W) 23:21:48 437.475
CUBEBUG 1 23 Jul 23:22:35 23:25:26 18° 69° (ENE) 23:28:17 437.445
DELFI C3 23 Jul 23:23:40 23:26:10 16° 265° (W) 23:28:40 145.870
Cosmos 2491 23 Jul 23:28:38 23:37:02 52° 281° (W) 23:45:29 435.465 / 435.565
QB50P2 23 Jul 23:43:12 23:45:04 13° 93° (E) 23:46:55 145.880/145.840
POLYITAN 1 23 Jul 23:45:45 23:47:43 13° 93° (E) 23:49:41 437.675
TIGRISAT 23 Jul 23:51:00 23:55:38 72° 284° (WNW) 00:00:10 435.000
AISAT 23 Jul 23:53:54 23:57:57 38° 73° (ENE) 00:02:01 437.250
AO-85 23 Jul 23:56:38 00:00:08 23° 53° (NE) 00:03:26 145.980
UNISAT 6 24 Jul 00:06:13 00:10:38 44° 287° (WNW) 00:14:57 437.425
DX 1 24 Jul 00:07:32 00:11:31 37° 73° (ENE) 00:15:31 434.975-435.025
ISS 24 Jul 00:08:29 00:10:18 14° 329° (NNW) 00:12:08 145.825
ESTCUBE 1 24 Jul 00:12:10 00:16:40 74° 260° (W) 00:21:10 437.505/2401.250
YUBILEINY 24 Jul 00:12:34 00:17:05 15° 281° (W) 00:21:36 435.215
50 SAT 24 Jul 00:13:45 00:17:25 69° 76° (ENE) 00:21:04 437.505
UKube-1 24 Jul 00:28:25 00:32:35 52° 74° (ENE) 00:36:47 .
Cosmos 2504 24 Jul 00:29:50 00:36:53 34° 274° (W) 00:43:31 435.465 / 435.565
NANOSAT C BR1 24 Jul 00:30:48 00:34:53 44° 99° (E) 00:38:57 145.865
PHONESAT 2.4 24 Jul 00:33:49 00:36:53 69° 208° (SSW) 00:39:55 2401.200-2431.200
DUCHIFAT 1 24 Jul 00:36:59 00:41:07 49° 100° (E) 00:45:14 145.980
VELOX 1 24 Jul 00:45:37 00:49:53 51° 260° (W) 00:54:10 145.980
TISAT 1 24 Jul 00:45:48 00:47:45 13° 67° (ENE) 00:49:43 437.305
ANTELSAT 24 Jul 00:46:02 00:49:01 17° 293° (WNW) 00:51:59 437.575/2403.000
QB50P1 24 Jul 00:50:45 00:55:03 85° 102° (ESE) 00:59:19 145.935-145.965
POPSAT HIP 1 24 Jul 00:56:49 01:01:07 82° 285° (WNW) 01:05:24 437.405
CUBEBUG 1 24 Jul 00:57:36 01:01:26 31° 262° (W) 01:05:17 437.445
BUGSAT 1 24 Jul 01:07:42 01:11:49 47° 100° (E) 01:15:55 437.445
AIST 1 24 Jul 01:08:26 01:12:11 28° 78° (ENE) 01:15:57
SPROUT 24 Jul 01:09:19 01:13:32 63° 259° (W) 01:17:47 437.525
QB50P2 24 Jul 01:16:58 01:21:01 42° 286° (WNW) 01:25:02 145.880/145.840
POLYITAN 1 24 Jul 01:19:37 01:23:40 41° 286° (WNW) 01:27:41 437.675
AISAT 24 Jul 01:32:07 01:34:31 14° 266° (W) 01:36:57 437.250
AO-85 24 Jul 01:37:06 01:40:27 23° 250° (WSW) 01:43:36 145.980
DX 1 24 Jul 01:45:27 01:47:48 14° 266° (W) 01:50:10 434.975-435.025
Oscar 19 24 Jul 01:49:08 01:52:59 21° 95° (E) 01:56:49 437.125/150
JAS-2 24 Jul 01:50:20 01:55:38 85° 104° (ESE) 02:01:24 435.910
SWISSCUBE 24 Jul 02:06:43 02:10:35 25° 69° (ENE) 02:14:26 437.505
NANOSAT C BR1 24 Jul 02:08:17 02:10:11 13° 293° (WNW) 02:12:05 145.865
DUCHIFAT 1 24 Jul 02:14:52 02:16:20 12° 294° (WNW) 02:17:47 145.980
TISAT 1 24 Jul 02:19:03 02:22:59 41° 261° (W) 02:26:58 437.305
GONETS M04 24 Jul 02:21:03 02:27:29 22° 71° (ENE) 02:33:54
BEESAT 24 Jul 02:27:56 02:32:19 37° 72° (ENE) 02:36:42 436.000
Gurwin Techsat 1B 24 Jul 02:38:23 02:42:56 28° 97° (E) 02:47:27 435.225
BUGSAT 1 24 Jul 02:45:08 02:46:43 12° 293° (WNW) 02:48:19 437.445
AIST 1 24 Jul 02:46:36 02:49:31 18° 272° (W) 02:52:27
ITUPSAT 1 24 Jul 02:48:06 02:52:49 61° 75° (ENE) 02:57:34 437.325
JUGNU 24 Jul 03:12:39 03:15:56 15° 167° (SSE) 03:19:12 437.505
ITAMSAT 1 24 Jul 03:15:21 03:19:02 19° 95° (E) 03:22:41 435.822/435.867
Oscar 19 24 Jul 03:27:37 03:32:20 37° 289° (WNW) 03:37:03 437.125/150
KKS-1 24 Jul 03:35:49 03:39:03 20° 69° (ENE) 03:42:17 437.445
Cosmos 2499 24 Jul 03:39:39 03:47:14 49° 79° (ENE) 03:54:15 435.465 / 435.565
MOZHAYETS 4 24 Jul 03:42:33 03:46:20 25° 71° (ENE) 03:50:08
SWISSCUBE 24 Jul 03:44:07 03:48:12 28° 263° (W) 03:52:18 437.505
DANDE 24 Jul 03:58:09 03:59:42 11° 92° (E) 04:01:11 436.750
BEESAT 24 Jul 04:06:54 04:10:09 18° 265° (W) 04:13:25 436.000
CUSAT 1 24 Jul 04:07:59 04:12:24 30° 97° (E) 04:15:54 437.405
AO-7 24 Jul 04:10:59 04:18:20 34° 99° (E) 04:25:35 29.400- 29.500
BEESAT 3 24 Jul 04:13:46 04:15:43 13° 51° (NE) 04:17:38 437.485
GONETS M04 24 Jul 04:16:12 04:24:54 68° 268° (W) 04:33:38
Gurwin Techsat 1B 24 Jul 04:18:14 04:22:46 29° 291° (WNW) 04:27:16 435.225
STARS 24 Jul 04:23:51 04:27:47 33° 72° (ENE) 04:31:44 437.465
ITUPSAT 1 24 Jul 04:29:56 04:30:58 11° 268° (W) 04:32:00 437.325
CUBESAT XI-V 24 Jul 04:52:57 04:55:49 16° 68° (ENE) 04:58:40 437.345
ITAMSAT 1 24 Jul 04:53:46 04:58:35 40° 289° (WNW) 05:03:23 435.822/435.867
JUGNU 24 Jul 04:59:54 05:04:17 21° 177° (S) 05:08:39 437.505
ISS 24 Jul 05:02:40 05:04:05 12° 30° (NNE) 05:05:30 145.825
KKS-1 24 Jul 05:11:32 05:15:23 29° 262° (W) 05:19:15 437.445
MOZHAYETS 4 24 Jul 05:19:34 05:23:22 25° 264° (W) 05:27:11
SRMSAT 24 Jul 05:22:33 05:25:37 14° 166° (SSE) 05:28:41 437.500
Cosmos 2499 24 Jul 05:33:48 05:39:44 25° 277° (W) 05:45:24 435.465 / 435.565
DANDE 24 Jul 05:35:43 05:42:23 75° 277° (W) 05:47:23 436.750
BEESAT 2 24 Jul 05:48:23 05:52:23 81° 64° (ENE) 05:56:21 435.950
BEESAT 3 24 Jul 05:49:49 05:53:35 45° 246° (WSW) 05:57:21 437.485
CUSAT 1 24 Jul 05:51:23 05:54:11 15° 280° (W) 05:56:38 437.405
STARS 24 Jul 06:01:23 06:04:11 17° 265° (W) 06:07:01 437.465
AO-7 24 Jul 06:03:17 06:11:07 47° 294° (WNW) 06:18:55 29.400- 29.500
PCSat 24 Jul 06:04:01 06:09:21 56° 62° (ENE) 06:14:39 145.827
NOAA 18 24 Jul 06:15:21 06:15:58 10° 92° (E) 06:16:34 137.9125
CUBESAT XI-V 24 Jul 06:28:30 06:32:50 39° 262° (W) 06:37:10 437.345
HORYU 2 24 Jul 06:30:16 06:34:43 66° 285° (WNW) 06:39:07 437.375
STRAND 1 24 Jul 06:33:17 06:35:28 13° 64° (ENE) 06:37:40 437.568
ISS 24 Jul 06:37:36 06:40:51 73° 226° (SW) 06:44:04 145.825
NOAA 15 24 Jul 06:38:18 06:42:43 27° 97° (E) 06:47:06 137.62
JUGNU 24 Jul 06:48:30 06:52:40 20° 187° (S) 06:56:49 437.505
LilacSat-2 24 Jul 06:50:49 06:53:51 22° 96° (E) 06:56:50 437.200
GOMX 1 24 Jul 06:52:52 06:56:52 23° 96° (E) 07:01:02 467.674
O/OREOS (USA 219) 24 Jul 06:57:07 06:59:31 14° 60° (ENE) 07:01:56 437.305
DOVE 4 24 Jul 07:05:22 07:07:56 14° 93° (E) 07:10:31 437.250
RS-15 24 Jul 07:05:49 07:16:23 48° 108° (ESE) 07:27:28 29.354- 29.394
BRITE-PL 24 Jul 07:09:32 07:14:21 78° 102° (ESE) 07:19:33 437.365/2234.400
SRMSAT 24 Jul 07:09:46 07:14:08 21° 176° (S) 07:18:27 437.500
AIST 2 24 Jul 07:19:02 07:22:49 32° 57° (ENE) 07:26:35 435.215
Cubesat XI-IV 24 Jul 07:20:40 07:25:54 53° 101° (E) 07:31:06 437.490
CUTE-I 24 Jul 07:45:25 07:50:47 86° 284° (WNW) 07:56:06 437.470
PCSat 24 Jul 07:49:10 07:52:11 15° 256° (WSW) 07:55:13 145.827
NOAA 18 24 Jul 07:51:32 07:57:06 79° 285° (WNW) 08:02:36 137.9125
STRAND 1 24 Jul 08:08:56 08:14:02 65° 258° (WSW) 08:19:10 437.568
NOAA 15 24 Jul 08:17:52 08:22:23 30° 291° (WNW) 08:26:56 137.62
CANX-2 24 Jul 08:23:24 08:26:28 19° 95° (E) 08:29:30 2200.000
LilacSat-2 24 Jul 08:25:09 08:27:59 20° 289° (WNW) 08:30:47 437.200
GOMX 1 24 Jul 08:30:22 08:34:53 34° 287° (WNW) 08:39:38 467.674
SO-50 24 Jul 08:31:49 08:35:52 27° 111° (ESE) 08:39:56 436.795
O/OREOS (USA 219) 24 Jul 08:34:48 08:39:08 46° 255° (WSW) 08:43:29 437.305
CUTE 1.7 + AOD 2 24 Jul 08:37:12 08:40:40 24° 96° (E) 08:44:05 437.475
JUGNU 24 Jul 08:38:56 08:40:59 12° 196° (SSW) 08:43:01 437.505
DOVE 4 24 Jul 08:40:47 08:45:49 58° 285° (WNW) 08:50:59 437.250
AIST 2 24 Jul 08:58:15 09:01:01 17° 251° (WSW) 09:03:47 435.215
SRMSAT 24 Jul 08:58:25 09:02:39 20° 186° (S) 09:06:54 437.500
Cubesat XI-IV 24 Jul 09:02:15 09:05:28 16° 295° (WNW) 09:08:41 437.490
CUBEBUG 2 24 Jul 09:12:39 09:16:26 24° 95° (E) 09:20:08 437.445
YUBILEINY 24 Jul 09:15:09 09:20:44 19° 81° (E) 09:26:19 435.215
CINEMA 3 24 Jul 09:17:55 09:22:57 81° 283° (WNW) 09:27:56 145.822/145.860
RS-15 24 Jul 09:17:58 09:28:46 46° 309° (NW) 09:40:14 29.354- 29.394
HO-68 24 Jul 09:19:18 09:26:32 75° 104° (ESE) 09:33:41 435.675
PRISM 24 Jul 09:20:17 09:24:22 80° 257° (WSW) 09:28:26 437.425
SEEDS 24 Jul 09:22:15 09:26:23 63° 100° (E) 09:30:30 437.485
COMPASS 1 24 Jul 09:40:33 09:44:40 72° 100° (E) 09:48:46 437.405
Cosmos 2491 24 Jul 09:43:46 09:52:29 66° 82° (E) 10:01:11 435.465 / 435.565
Oscar 11 24 Jul 09:54:40 09:58:25 28° 97° (E) 10:02:08 145.826/435.025
CANX-2 24 Jul 09:58:45 10:02:15 26° 288° (WNW) 10:05:46 2200.000
ANTELSAT 24 Jul 10:03:26 10:06:51 21° 69° (ENE) 10:10:20 437.575/2403.000
SO-50 24 Jul 10:11:56 10:16:14 30° 305° (NW) 10:20:31 436.795
AAUSAT CUBESAT 2 24 Jul 10:12:25 10:16:27 56° 284° (WNW) 10:20:27 437.432
CUTE 1.7 + AOD 2 24 Jul 10:13:10 10:16:20 21° 290° (WNW) 10:19:28 437.475
M-CUBED/EXP-1 PRIME 24 Jul 10:28:51 10:32:39 24° 100° (E) 10:36:26 437.505
UWE-3 24 Jul 10:33:36 10:38:09 59° 285° (WNW) 10:42:34 435.000/436.395/437.385
ZACube-1 24 Jul 10:41:55 10:46:26 75° 283° (WNW) 10:50:49 437.345
FUNcube-1 24 Jul 10:42:55 10:47:25 79° 282° (WNW) 10:51:47 145.935
TIGRISAT 24 Jul 10:44:54 10:49:21 59° 75° (ENE) 10:53:57 435.000
SRMSAT 24 Jul 10:48:41 10:51:09 13° 195° (SSW) 10:53:37 437.500
CUBEBUG 2 24 Jul 10:48:58 10:52:57 27° 289° (WNW) 10:56:51 437.445
HUMSAT D 24 Jul 10:51:00 10:54:26 24° 96° (E) 10:57:48 437.325/437.525
AUBIESAT-1 24 Jul 10:57:29 11:01:52 41° 103° (ESE) 11:06:12 437.475
UNISAT 6 24 Jul 11:00:00 11:04:34 86° 257° (WSW) 11:09:14 437.425
DELFI C3 24 Jul 11:03:39 11:07:35 87° 102° (ESE) 11:11:31 145.870
YUBILEINY 24 Jul 11:07:44 11:16:28 74° 277° (W) 11:25:19 435.215
Cosmos 2504 24 Jul 11:07:48 11:15:40 39° 87° (E) 11:23:38 435.465 / 435.565
HO-68 24 Jul 11:08:53 11:13:26 18° 300° (WNW) 11:18:00 435.675
NANOSAT C BR1 24 Jul 11:19:35 11:22:34 19° 69° (ENE) 11:25:36 145.865
DUCHIFAT 1 24 Jul 11:25:22 11:28:31 21° 70° (ENE) 11:31:41 145.980
Oscar 11 24 Jul 11:31:15 11:34:18 19° 291° (WNW) 11:37:21 145.826/435.025
QB50P1 24 Jul 11:39:02 11:42:52 34° 73° (ENE) 11:46:44 145.935-145.965
ANTELSAT 24 Jul 11:39:18 11:43:19 30° 263° (W) 11:47:26 437.575/2403.000
RS-15 24 Jul 11:39:42 11:45:39 15° 339° (NNW) 11:51:44 29.354- 29.394
Cosmos 2491 24 Jul 11:42:21 11:48:27 22° 278° (W) 11:54:34 435.465 / 435.565
POPSAT HIP 1 24 Jul 11:45:01 11:48:58 40° 73° (ENE) 11:52:58 437.405
AISAT 24 Jul 11:51:29 11:51:45 10° 92° (E) 11:52:02 437.250
BUGSAT 1 24 Jul 11:54:16 11:57:05 18° 69° (ENE) 11:59:55 437.445
JAS-2 24 Jul 11:59:25 12:04:08 23° 69° (ENE) 12:08:28 435.910
M-CUBED/EXP-1 PRIME 24 Jul 12:02:59 12:07:04 30° 293° (WNW) 12:11:08 437.505
QB50P2 24 Jul 12:04:46 12:08:59 80° 77° (ENE) 12:13:16 145.880/145.840
POLYITAN 1 24 Jul 12:07:24 12:11:38 82° 77° (ENE) 12:15:55 437.675
ESTCUBE 1 24 Jul 12:09:10 12:13:09 31° 98° (E) 12:17:07 437.505/2401.250
UKube-1 24 Jul 12:21:41 12:23:26 12° 94° (E) 12:25:09 .
TIGRISAT 24 Jul 12:25:43 12:26:22 10° 269° (W) 12:27:01 435.000
HUMSAT D 24 Jul 12:26:44 12:29:53 21° 290° (WNW) 12:33:00 437.325/437.525
AUBIESAT-1 24 Jul 12:32:50 12:35:56 18° 296° (WNW) 12:39:03 437.475
VELOX 1 24 Jul 12:39:49 12:44:00 39° 99° (E) 12:48:09 145.980
CUBEBUG 1 24 Jul 12:49:38 12:54:00 62° 101° (ESE) 12:58:21 437.445
NANOSAT C BR1 24 Jul 12:54:29 12:58:05 27° 263° (W) 13:01:43 145.865
SPROUT 24 Jul 12:59:43 13:03:30 29° 97° (E) 13:07:16 437.525
DUCHIFAT 1 24 Jul 13:00:33 13:04:01 25° 263° (W) 13:07:32 145.980
Cosmos 2504 24 Jul 13:00:44 13:08:51 41° 283° (WNW) 13:17:07 435.465 / 435.565
Oscar 19 24 Jul 13:02:17 13:05:58 20° 67° (ENE) 13:09:40 437.125/150
YUBILEINY 24 Jul 13:12:39 13:14:48 11° 296° (WNW) 13:16:56 435.215
QB50P1 24 Jul 13:16:17 13:18:42 15° 266° (W) 13:21:09 145.935-145.965
50 SAT 24 Jul 13:20:06 13:23:34 47° 285° (WNW) 13:27:01 437.505
POPSAT HIP 1 24 Jul 13:22:59 13:24:53 13° 267° (W) 13:26:48 437.405
AISAT 24 Jul 13:24:08 13:28:29 56° 285° (WNW) 13:32:51 437.250
BUGSAT 1 24 Jul 13:28:49 13:32:14 26° 263° (W) 13:35:42 437.445
AIST 1 24 Jul 13:33:57 13:37:03 20° 89° (E) 13:40:09
DX 1 24 Jul 13:35:27 13:39:46 61° 285° (WNW) 13:44:04 434.975-435.025
JAS-2 24 Jul 13:42:50 13:48:58 44° 260° (W) 13:54:28 435.910
ESTCUBE 1 24 Jul 13:46:32 13:49:42 19° 291° (WNW) 13:52:52 437.505/2401.250
Gurwin Techsat 1B 24 Jul 13:55:24 13:59:58 30° 70° (ENE) 14:04:33 435.225
UKube-1 24 Jul 13:55:30 13:59:38 44° 287° (WNW) 14:03:45 .
RS-15 24 Jul 14:00:36 14:06:13 14° 18° (NNE) 14:11:50 29.354- 29.394
AO-85 24 Jul 14:05:43 14:10:10 27° 111° (ESE) 14:14:34 145.980
TISAT 1 24 Jul 14:06:56 14:10:56 39° 99° (E) 14:14:54 437.305
VELOX 1 24 Jul 14:17:29 14:20:05 15° 292° (WNW) 14:22:41 145.980
ITAMSAT 1 24 Jul 14:29:24 14:33:11 21° 67° (ENE) 14:36:59 435.822/435.867
BEESAT 24 Jul 14:33:58 14:36:09 13° 93° (E) 14:38:19 436.000
SPROUT 24 Jul 14:36:10 14:39:12 19° 291° (WNW) 14:42:14 437.525
Oscar 19 24 Jul 14:40:15 14:44:58 38° 261° (W) 14:49:45 437.125/150
ITUPSAT 1 24 Jul 14:53:37 14:57:17 22° 96° (E) 15:00:56 437.325
AO-7 24 Jul 15:05:37 15:12:46 33° 62° (ENE) 15:19:56 29.400- 29.500
AIST 1 24 Jul 15:11:01 15:14:27 24° 282° (WNW) 15:17:54
GONETS M04 24 Jul 15:16:57 15:23:59 29° 84° (E) 15:31:01
Gurwin Techsat 1B 24 Jul 15:35:23 15:39:49 27° 263° (W) 15:44:19 435.225
TISAT 1 24 Jul 15:43:56 15:46:12 14° 292° (WNW) 15:48:26 437.305
AO-85 24 Jul 15:45:34 15:50:31 36° 304° (WNW) 15:55:19 145.980
SWISSCUBE 24 Jul 15:47:39 15:52:25 79° 284° (WNW) 15:57:09 437.505
ITAMSAT 1 24 Jul 16:07:26 16:12:19 40° 261° (W) 16:17:14 435.822/435.867
Cosmos 2499 24 Jul 16:08:59 16:17:21 49° 89° (E) 16:25:40 435.465 / 435.565
BEESAT 24 Jul 16:09:33 16:14:09 50° 286° (WNW) 16:18:43 436.000
RS-15 24 Jul 16:12:08 16:23:37 42° 49° (NE) 16:34:52 29.354- 29.394
DANDE 24 Jul 16:19:44 16:22:09 33° 81° (E) 16:24:47 436.750
CUSAT 1 24 Jul 16:26:07 16:28:49 29° 263° (W) 16:32:05 437.405
ITUPSAT 1 24 Jul 16:30:56 16:35:05 30° 289° (WNW) 16:39:12 437.325
AO-7 24 Jul 16:57:10 17:05:09 49° 258° (WSW) 17:13:13 29.400- 29.500
PHONESAT 2.4 24 Jul 17:03:12 17:04:30 12° 141° (SE) 17:05:47 2401.200-2431.200
KKS-1 24 Jul 17:05:51 17:10:20 72° 101° (E) 17:14:48 437.445
GONETS M04 24 Jul 17:11:56 17:20:16 51° 281° (W) 17:28:41
MOZHAYETS 4 24 Jul 17:17:49 17:22:23 77° 285° (WNW) 17:26:55
HORYU 2 24 Jul 17:23:41 17:28:06 66° 75° (ENE) 17:32:34 437.375
CUTE-I 24 Jul 17:27:33 17:28:56 11° 62° (ENE) 17:30:19 437.470
NOAA 18 24 Jul 17:35:59 17:39:01 15° 63° (ENE) 17:42:03 137.9125
STARS 24 Jul 17:53:03 17:57:27 67° 285° (WNW) 18:01:51 437.465
NOAA 15 24 Jul 17:54:22 17:58:49 29° 69° (ENE) 18:03:16 137.62
GOMX 1 24 Jul 17:59:34 18:01:04 12° 66° (ENE) 18:02:35 467.674
Cosmos 2499 24 Jul 18:02:52 18:10:34 33° 285° (WNW) 18:18:16 435.465 / 435.565
BRITE-PL 24 Jul 18:17:08 18:21:13 51° 75° (ENE) 18:25:14 437.365/2234.400
RS-15 24 Jul 18:24:34 18:36:29 58° 250° (WSW) 18:48:07 29.354- 29.394
CUBESAT XI-V 24 Jul 18:28:48 18:33:24 69° 101° (E) 18:37:59 437.345
PHONESAT 2.4 24 Jul 18:37:35 18:40:40 87° 339° (NNW) 18:43:45 2401.200-2431.200
Cubesat XI-IV 24 Jul 18:38:20 18:43:36 58° 73° (ENE) 18:48:52 437.490
SO-50 24 Jul 18:46:51 18:51:28 80° 61° (ENE) 18:55:55 436.795
PCSat 24 Jul 19:01:32 19:03:45 13° 103° (ESE) 19:05:59 145.827
LilacSat-2 24 Jul 19:01:38 19:05:29 75° 258° (WSW) 19:09:22 437.200
CUTE-I 24 Jul 19:02:52 19:08:15 80° 259° (W) 19:13:38 437.470
NOAA 18 24 Jul 19:13:38 19:19:05 62° 258° (WSW) 19:24:35 137.9125
CUTE 1.7 + AOD 2 24 Jul 19:27:57 19:29:11 11° 67° (ENE) 19:30:25 437.475
NOAA 15 24 Jul 19:34:02 19:38:29 28° 263° (W) 19:42:57 137.62
GOMX 1 24 Jul 19:34:49 19:38:44 42° 261° (W) 19:42:44 467.674
BEESAT 3 24 Jul 19:35:58 19:39:51 83° 119° (ESE) 19:43:48 437.485
BEESAT 2 24 Jul 19:36:20 19:40:00 38° 114° (ESE) 19:43:42 435.950
DOVE 4 24 Jul 19:42:20 19:46:30 89° 78° (ENE) 19:50:53 437.250
HO-68 24 Jul 19:43:34 19:49:57 36° 66° (ENE) 19:56:21 435.675
CUBEBUG 2 24 Jul 20:08:13 20:10:04 12° 66° (ENE) 20:11:57 437.445
SEEDS 24 Jul 20:10:08 20:13:36 25° 72° (ENE) 20:17:04 437.485
PHONESAT 2.4 24 Jul 20:14:51 20:17:26 24° 350° (N) 20:20:02 2401.200-2431.200
CINEMA 3 24 Jul 20:15:12 20:19:28 54° 75° (ENE) 20:23:58 145.822/145.860
Cubesat XI-IV 24 Jul 20:21:14 20:23:57 14° 267° (W) 20:26:41 437.490
STRAND 1 24 Jul 20:23:44 20:28:47 61° 101° (E) 20:33:48 437.568
COMPASS 1 24 Jul 20:27:21 20:30:53 27° 72° (ENE) 20:34:26 437.405
PCSat 24 Jul 20:41:07 20:46:29 67° 297° (WNW) 20:51:54 145.827
CANX-2 24 Jul 20:46:14 20:50:29 66° 259° (WSW) 20:54:46 2200.000
Oscar 11 24 Jul 20:46:39 20:48:54 14° 68° (ENE) 20:51:11 145.826/435.025
Cosmos 2491 24 Jul 20:49:03 20:52:26 13° 78° (ENE) 20:55:48 435.465 / 435.565
AAUSAT CUBESAT 2 24 Jul 20:58:03 21:02:04 50° 75° (ENE) 21:06:06 437.432
CUTE 1.7 + AOD 2 24 Jul 21:00:22 21:04:31 51° 260° (W) 21:08:42 437.475
O/OREOS (USA 219) 24 Jul 21:03:55 21:07:52 32° 104° (ESE) 21:11:51 437.305
PRISM 24 Jul 21:06:50 21:09:42 18° 96° (E) 21:12:35 437.425
AIST 2 24 Jul 21:13:25 21:16:16 18° 110° (ESE) 21:19:08 435.215
M-CUBED/EXP-1 PRIME 24 Jul 21:13:26 21:14:52 12° 61° (ENE) 21:16:20 437.505
BEESAT 2 24 Jul 21:15:40 21:17:58 15° 309° (NW) 21:20:18 435.950
YUBILEINY 24 Jul 21:23:28 21:31:54 47° 78° (ENE) 21:40:13 435.215
UWE-3 24 Jul 21:25:40 21:30:06 65° 76° (ENE) 21:34:41 435.000/436.395/437.385
HO-68 24 Jul 21:31:01 21:37:30 37° 261° (W) 21:44:04 435.675
ZACube-1 24 Jul 21:32:58 21:37:17 49° 74° (ENE) 21:41:40 437.345
FUNcube-1 24 Jul 21:33:42 21:37:58 46° 74° (ENE) 21:42:20 145.935
ISS 24 Jul 21:38:09 21:40:50 24° 129° (SE) 21:43:32 145.825
HUMSAT D 24 Jul 21:40:21 21:41:28 11° 66° (ENE) 21:42:36 437.325/437.525
AUBIESAT-1 24 Jul 21:40:28 21:43:18 21° 65° (ENE) 21:46:18 437.475
CUBEBUG 2 24 Jul 21:41:44 21:46:07 53° 260° (W) 21:50:40 437.445
DELFI C3 24 Jul 21:45:38 21:49:00 26° 72° (ENE) 21:52:21 145.870
SEEDS 24 Jul 21:45:59 21:49:12 21° 265° (W) 21:52:25 437.485
PHONESAT 2.4 24 Jul 21:52:04 21:54:31 21° 6° (N) 21:57:00 2401.200-2431.200
CINEMA 3 24 Jul 21:56:13 21:56:58 10° 270° (W) 21:57:43 145.822/145.860
COMPASS 1 24 Jul 22:03:26 22:06:24 19° 265° (W) 22:09:23 437.405
STRAND 1 24 Jul 22:05:02 22:07:23 13° 296° (WNW) 22:09:43 437.568
Oscar 11 24 Jul 22:20:32 22:24:38 41° 261° (W) 22:28:46 145.826/435.025
